TimeCDT,TemperatureF,Dew PointF,Humidity,Sea Level PressureIn,VisibilityMPH,Wind Direction,Wind SpeedMPH,Gust SpeedMPH,PrecipitationIn,Events,Conditions,WindDirDegrees,DateUTC
12:54 AM,68.0,63.0,84,29.97,9.0,South,11.5,-,N/A,,Overcast,170,2013-09-18 05:54:00
1:54 AM,66.9,63.0,87,29.96,9.0,South,12.7,-,N/A,,Overcast,170,2013-09-18 06:54:00
2:14 AM,66.9,63.0,87,29.96,8.0,South,12.7,-,N/A,,Overcast,170,2013-09-18 07:14:00
2:54 AM,66.9,63.0,87,29.94,7.0,South,10.4,-,N/A,,Overcast,170,2013-09-18 07:54:00
3:38 AM,66.9,63.0,87,29.93,7.0,South,11.5,-,N/A,,Overcast,170,2013-09-18 08:38:00
3:54 AM,66.9,63.0,87,29.92,7.0,South,11.5,-,N/A,,Overcast,180,2013-09-18 08:54:00
4:04 AM,66.9,64.0,90,29.92,6.0,South,11.5,-,N/A,,Overcast,170,2013-09-18 09:04:00
4:30 AM,68.0,64.0,87,29.92,6.0,South,9.2,-,N/A,,Overcast,180,2013-09-18 09:30:00
4:54 AM,68.0,64.0,87,29.90,6.0,South,8.1,-,N/A,,Overcast,170,2013-09-18 09:54:00
5:07 AM,68.0,64.0,87,29.90,6.0,South,10.4,-,N/A,Thunderstorm,Overcast,170,2013-09-18 10:07:00
5:27 AM,68.0,64.9,90,29.90,6.0,SSE,9.2,-,0.00,Rain,Light Rain,150,2013-09-18 10:27:00
5:54 AM,68.0,64.9,90,29.89,6.0,SSE,9.2,-,0.00,,Overcast,160,2013-09-18 10:54:00
6:54 AM,69.1,64.9,87,29.88,6.0,SSE,13.8,-,N/A,,Overcast,160,2013-09-18 11:54:00
7:54 AM,69.1,64.9,87,29.89,4.0,SSE,12.7,-,N/A,,Overcast,160,2013-09-18 12:54:00
8:54 AM,71.1,66.0,84,29.88,5.0,South,12.7,-,N/A,,Overcast,180,2013-09-18 13:54:00
9:12 AM,72.0,66.0,81,29.89,6.0,South,10.4,-,N/A,,Haze,190,2013-09-18 14:12:00
9:26 AM,73.0,66.0,79,29.89,6.0,South,12.7,-,N/A,,Haze,180,2013-09-18 14:26:00
9:54 AM,75.9,66.9,74,29.87,8.0,South,13.8,-,N/A,,Partly Cloudy,190,2013-09-18 14:54:00
10:54 AM,80.1,66.9,64,29.86,10.0,SSW,13.8,-,N/A,,Partly Cloudy,200,2013-09-18 15:54:00
11:54 AM,84.0,68.0,58,29.84,10.0,South,15.0,-,N/A,,Partly Cloudy,190,2013-09-18 16:54:00
12:54 PM,87.1,68.0,53,29.81,10.0,SSW,16.1,-,N/A,,Partly Cloudy,200,2013-09-18 17:54:00
1:54 PM,90.0,68.0,48,29.79,10.0,SSW,18.4,25.3,N/A,,Partly Cloudy,200,2013-09-18 18:54:00
2:54 PM,91.0,68.0,47,29.77,10.0,South,15.0,24.2,N/A,,Partly Cloudy,190,2013-09-18 19:54:00
3:54 PM,91.0,68.0,47,29.75,10.0,South,17.3,27.6,N/A,,Partly Cloudy,180,2013-09-18 20:54:00
4:54 PM,90.0,66.9,46,29.73,10.0,South,20.7,28.8,N/A,,Partly Cloudy,190,2013-09-18 21:54:00
5:54 PM,89.1,66.9,48,29.74,10.0,South,17.3,24.2,N/A,,Partly Cloudy,190,2013-09-18 22:54:00
6:54 PM,86.0,66.0,51,29.75,10.0,South,9.2,-,N/A,,Partly Cloudy,190,2013-09-18 23:54:00
7:54 PM,82.9,66.9,58,29.77,10.0,South,8.1,-,N/A,,Partly Cloudy,190,2013-09-19 00:54:00
8:54 PM,81.0,68.0,65,29.77,10.0,South,10.4,-,N/A,,Partly Cloudy,170,2013-09-19 01:54:00
9:54 PM,80.1,69.1,69,29.77,10.0,South,13.8,-,N/A,,Clear,170,2013-09-19 02:54:00
10:54 PM,79.0,69.1,72,29.77,10.0,South,13.8,-,N/A,,Clear,180,2013-09-19 03:54:00
11:54 PM,78.1,69.1,74,29.77,10.0,South,13.8,-,N/A,,Partly Cloudy,180,2013-09-19 04:54:00